TimeCDT,TemperatureF,Dew PointF,Humidity,Sea Level PressureIn,VisibilityMPH,Wind Direction,Wind SpeedMPH,Gust SpeedMPH,PrecipitationIn,Events,Conditions,WindDirDegrees,DateUTC
12:53 AM,84.0,60.1,44,30.02,10.0,SE,6.9,-,N/A,,Clear,130,2013-09-06 05:53:00
1:53 AM,82.0,60.1,47,30.03,10.0,SSE,6.9,-,N/A,,Partly Cloudy,150,2013-09-06 06:53:00
2:53 AM,82.9,60.1,46,30.02,10.0,ESE,8.1,-,N/A,,Mostly Cloudy,120,2013-09-06 07:53:00
3:53 AM,80.1,60.1,50,30.01,10.0,SE,5.8,-,N/A,,Scattered Clouds,130,2013-09-06 08:53:00
4:53 AM,80.1,61.0,52,30.01,10.0,Calm,Calm,-,N/A,,Overcast,0,2013-09-06 09:53:00
5:53 AM,80.1,62.1,54,30.01,10.0,Calm,Calm,-,N/A,,Scattered Clouds,0,2013-09-06 10:53:00
6:53 AM,79.0,63.0,58,30.02,10.0,Calm,Calm,-,N/A,,Partly Cloudy,0,2013-09-06 11:53:00
7:53 AM,79.0,64.9,62,30.04,10.0,Calm,Calm,-,N/A,,Scattered Clouds,0,2013-09-06 12:53:00
8:53 AM,82.9,68.0,60,30.05,10.0,SSE,5.8,-,N/A,,Partly Cloudy,160,2013-09-06 13:53:00
9:53 AM,87.1,68.0,53,30.06,10.0,SSW,8.1,-,N/A,,Clear,210,2013-09-06 14:53:00
10:53 AM,90.0,66.9,46,30.06,10.0,Calm,Calm,-,N/A,,Clear,0,2013-09-06 15:53:00
11:53 AM,93.0,66.0,41,30.05,10.0,SW,4.6,-,N/A,,Partly Cloudy,230,2013-09-06 16:53:00
12:53 PM,96.1,63.0,33,30.03,10.0,SW,6.9,-,N/A,,Mostly Cloudy,230,2013-09-06 17:53:00
1:53 PM,97.0,62.1,31,30.01,10.0,NNE,5.8,-,N/A,,Mostly Cloudy,20,2013-09-06 18:53:00
2:53 PM,99.0,60.1,28,29.97,10.0,Calm,Calm,-,N/A,,Scattered Clouds,0,2013-09-06 19:53:00
3:53 PM,99.0,57.0,25,29.94,10.0,Variable,4.6,-,N/A,,Scattered Clouds,0,2013-09-06 20:53:00
4:53 PM,99.0,55.0,23,29.93,10.0,South,5.8,-,N/A,,Scattered Clouds,180,2013-09-06 21:53:00
5:53 PM,99.0,55.9,24,29.91,10.0,SE,8.1,-,N/A,,Scattered Clouds,130,2013-09-06 22:53:00
6:53 PM,96.1,59.0,29,29.91,10.0,ESE,8.1,-,N/A,,Partly Cloudy,120,2013-09-06 23:53:00
7:53 PM,91.9,60.1,34,29.93,10.0,SSE,11.5,-,N/A,,Scattered Clouds,150,2013-09-07 00:53:00
8:53 PM,89.1,61.0,39,29.94,10.0,SE,5.8,-,N/A,,Partly Cloudy,140,2013-09-07 01:53:00
9:53 PM,87.1,62.1,43,29.94,10.0,SE,5.8,-,N/A,,Partly Cloudy,140,2013-09-07 02:53:00
10:53 PM,84.9,62.1,46,29.94,10.0,SE,5.8,-,N/A,,Partly Cloudy,130,2013-09-07 03:53:00
11:53 PM,84.0,62.1,47,29.94,10.0,SE,6.9,-,N/A,,Partly Cloudy,130,2013-09-07 04:53:00